Hourly Weather Roundup
Issued by NWS Central Illinois

Home | Current Version | Previous Version | Text Only | Print | Product List | Glossary On
Versions: 1 2 3 4 5 6 7 8 9 10 11 12 13 14 15 16 17 18 19 20 21 22 23 24 25 26 27 28 29 30 31 32 33 34 35 36 37 38 39 40 41 42 43 44 45 46 47 48 49 50
000
NZUS43 KILX 062210
HWRILX

AREA WEATHER ROUNDUP
NATIONAL WEATHER SERVICE, LINCOLN IL
400 PM CST SAT FEB 06 2016


CITY           SKY/WX    TMP DP  RH WIND       PRES   REMARKS
BLOOMINGTON    SUNNY     46  32  58 SW10      30.18F
CHAMPAIGN      SUNNY     46  32  58 SW12      30.20S
DANVILLE       SUNNY     44  31  61 S9        30.18S
DECATUR        SUNNY     49  31  49 SW14      30.19F
EFFINGHAM      SUNNY     52  29  41 S12G18    30.23F
FLORA          SUNNY     55  25  31 SW9       30.23F
GALESBURG      SUNNY     45  29  52 SW12      30.15S
JACKSONVILLE   SUNNY     52  32  46 SW9       30.17F
LACON          SUNNY     46  26  46 SW6       30.15F
LAWRENCEVILLE  SUNNY     51  26  37 SW10      30.24F
LITCHFIELD     SUNNY     50  33  50 SW8       30.20S
$$


CITY           SKY/WX    TMP DP  RH WIND       PRES   REMARKS
LINCOLN        SUNNY     49  34  56 SW5       30.18S
MACOMB         SUNNY     47  31  52 SW15      30.18F
MATTOON        SUNNY     48  29  47 S8        30.20S
MT CARMEL AP   SUNNY     52  25  35 SW10      30.24S
OLNEY-NOBLE AP SUNNY     52  28  40 S7        30.24S
PARIS          SUNNY     46  32  58 SW8       30.22S
PEORIA         SUNNY     47  25  42 SW12      30.17F
PONTIAC        SUNNY     45  32  60 SW10      30.18S
RANTOUL        SUNNY     46  33  60 SW10      30.19S
ROBINSON       SUNNY     50  27  40 SW9       30.24S
SPRINGFIELD    SUNNY     51  31  46 SW9       30.18F
TAYLORVILLE    SUNNY     48  34  57 SW13G18   30.20S
$$

...REGIONAL REPORTS...


CITY           SKY/WX    TMP DP  RH WIND       PRES   REMARKS
CHICAGO O`HARE MOSUNNY   41  28  60 SW7       30.14F
KANKAKEE       SUNNY     43  31  61 SW7       30.18F
MOLINE         SUNNY     43  29  57 W12       30.15R
MOUNT STERLING SUNNY     48  27  44 SW12      30.16F
MOUNT VERNON   SUNNY     54  27  35 SW9       30.24F
PITTSFIELD     SUNNY     51  30  44 SW10      30.18F
QUINCY         SUNNY     49  27  42 W10       30.17F
ROCKFORD       MOSUNNY   40  27  59 W10       30.15F WCI  33
$$


CITY           SKY/WX    TMP DP  RH WIND       PRES   REMARKS
BURLINGTON     SUNNY     46  30  53 SW10      30.15S
CEDAR RAPIDS   MOSUNNY   37  33  85 W6        30.13F WCI  32
DES MOINES     MOSUNNY   37  28  70 SW12      30.13F WCI  29
KIRKSVILLE     SUNNY     46  28  49 SW12      30.18S
OTTUMWA        SUNNY     42  32  67 W10       30.14F
ST LOUIS       MOSUNNY   57  25  29 W13       30.21S
$$


CITY           SKY/WX    TMP DP  RH WIND       PRES   REMARKS
TERRE HAUTE    SUNNY     48  27  44 SW9       30.23S
EVANSVILLE     SUNNY     54  25  32 SW7       30.26F
INDIANAPOLIS   SUNNY     46  23  40 W12       30.22S
LAFAYETTE      SUNNY     43  27  53 SW6       30.21S
MADISON        MOSUNNY   32  25  75 SW8       30.11S WCI  25
MILWAUKEE      CLOUDY    34  26  72 W9        30.12F WCI  27
$$





USA.gov is the U.S. government's official web portal to all federal, state and local government web resources and services.